Regional Weather Roundup
Issued by NWS

Home | Current Version | Previous Version | Graphics & Text | Print | Product List | Glossary Off
Versions: 1 2 3 4 5 6 7 8 9 10 11 12 13 14 15 16 17 18 19 20 21 22 23 24 25 26 27

000
ASUS45 KCYS 261010
RWRWY

WYOMING REGIONAL WEATHER ROUNDUP
NATIONAL WEATHER SERVICE CHEYENNE WY
400 AM MDT THU APR 26 2018

NOTE:  "FAIR" INDICATES FEW OR NO CLOUDS BELOW 12,000 FEET
WITH NO SIGNIFICANT WEATHER AND/OR OBSTRUCTIONS TO VISIBILITY.

WYZ001-261100-
YELLOWSTONE NATIONAL PARK

CITY           SKY/WX    TMP DP  RH WIND       PRES   REMARKS
LK YELLOWSTONE   N/A     24  21  88 CALM      30.32S
W YELLOWSTONE  NOT AVBL

$$
WYZ002>013-054>058-071-098>099-261100-
NORTHERN WYOMING

CITY           SKY/WX    TMP DP  RH WIND       PRES   REMARKS
JACKSON        FAIR      32  24  72 N8        30.27R WCI  25
CODY           FAIR      35  29  78 CALM      30.29S
GREYBULL       FAIR      40  33  76 NW12      30.24R WCI  33
WORLAND        FAIR      39  32  76 NW7       30.25S WCI  34
SHERIDAN       CLOUDY    44  34  67 W12       30.24S
BUFFALO        FAIR      43  31  62 NW14      30.25R
GILLETTE       CLOUDY    41  34  76 NW12      30.20S
HULETT         CLOUDY    45  32  61 N6        30.19R
NEWCASTLE      FAIR      37  28  70 NW9       30.17R WCI  31

$$
WYZ014>020-022>026-101>103-261100-
CENTRAL WYOMING

CITY           SKY/WX    TMP DP  RH WIND       PRES   REMARKS
BIG PINEY      FAIR      26  16  65 CALM      30.27R
PINEDALE       FAIR      30  23  74 NW6       30.26R WCI  24
DUBOIS         FAIR      30  27  86 S5        30.28R WCI  25
LANDER         CLOUDY    40  33  76 E5        30.27S
RIVERTON       FAIR      38  30  73 SE6       30.28R WCI  33
CASPER         FAIR      36  33  89 CALM      30.26R
DOUGLAS        CLOUDY    44  32  62 NW18G25   30.22R

$$
WYZ021-027>030-104>119-261100-
SOUTHERN WYOMING

CITY           SKY/WX    TMP DP  RH WIND       PRES   REMARKS
EVANSTON       FAIR      39  21  48 SE6       30.25S WCI  35
KEMMERER       FAIR      32  25  74 N6        30.26S WCI  26
FORT BRIDGER   FAIR      41  21  44 SW8       30.27S
ROCK SPRINGS   FAIR      36  28  73 E14       30.28R WCI  27
DIXON          PTSUNNY   38  21  50 NE3       30.25R
RAWLINS        MOCLDY    38  26  62 N13       30.27R WCI  30
SARATOGA       CLOUDY    37  23  56 N12       30.25R WCI  30
LARAMIE        CLOUDY    37  27  67 N18       30.19R WCI  27
CHEYENNE       CLOUDY    41  26  55 N23G32    30.15R
TORRINGTON     CLOUDY    50  30  46 NW25G32   30.12R
PINE BLUFFS    FAIR      43  27  52 N22G28    30.12R

$$




USA.gov is the U.S. government's official web portal to all federal, state and local government web resources and services.